Location: *
(43.8618°S, 174.5722°W)
Time: 11:33:06
(UTC+00:00)

Daily predictions for brighter satellites

Satellite Brightness Start Highest point End
(mag) Time Altitude Azimuth Time Altitude Azimuth Time Altitude Azimuth
SL-16 R/B 4.4 15:04:29 21° ESE 15:04:29 21° ESE 15:07:10 10° SE
NOSS 3-1 (A) 4.3 15:29:00 68° ENE 15:29:01 68° ENE 15:36:51 10° SE
Lacrosse 4 Rocket 4.2 15:36:41 17° ESE 15:36:41 17° ESE 15:38:39 10° E
ATLAS 5 CENTAUR R/B 3.1 15:48:28 55° NNE 15:49:23 60° ENE 15:56:09 10° SE
Cosmos 2297 3.9 16:07:27 68° E 16:07:27 68° E 16:12:49 10° NNE
Lacrosse 5 rocket 4.0 16:11:04 15° NNE 16:11:04 15° NNE 16:11:51 10° NNE
BREEZE-M TANK 3.5 16:08:48 79° S 16:08:52 79° S 16:21:30 10° E
Cosmos 2369 Rocket 3.5 16:11:51 21° S 16:14:54 36° SE 16:20:06 10° ENE
SJ 16-02 2.8 16:18:20 32° SE 16:19:19 36° ESE 16:23:25 10° NE
Cosmos 2237 Rocket 4.0 16:25:39 19° S 16:25:39 19° S 16:27:35 10° S
Cosmos 1346 Rocket 4.4 16:21:46 10° NNE 16:25:22 34° E 16:29:02 10° SSE
Okean O Rocket 4.3 16:27:03 10° ENE 16:29:58 17° ESE 16:32:54 10° SSE
Cosmos 1943 Rocket 2.0 16:32:37 62° SSW 16:33:37 89° WNW 16:39:13 10° NNE
NOAA 12 4.4 16:33:53 10° NNE 16:39:06 67° ESE 16:44:23 10° S
USA 234 3.3 16:32:55 10° SE 16:39:23 58° SSW 16:40:44 49° WSW
NOAA 11 4.2 16:37:00 10° NNE 16:42:32 82° ESE 16:48:09 10° SSW
Cosmos 1536 Rocket 3.9 16:38:51 10° N 16:43:19 67° E 16:47:52 10° SSE
Cosmos 389 Rocket 3.4 16:44:31 43° NE 16:44:31 43° NE 16:47:06 10° NNE
SL-16 R/B 2.3 16:46:25 53° WSW 16:46:25 53° WSW 16:52:02 10° SSE
CZ-2C R/B 3.9 16:41:59 10° NE 16:47:13 54° ESE 16:52:47 10° S
Cosmos 1802 Rocket 4.2 16:43:34 10° S 16:49:48 72° E 16:55:59 10° NNE
Cosmos 2100 Rocket 3.9 16:49:49 10° S 16:56:16 78° W 17:02:39 10° N
USA 229 DEB 4.2 16:56:02 38° W 16:58:10 46° SW 17:05:10 10° SSE
USA 229 4.2 16:56:05 37° W 16:58:15 46° SW 17:05:15 10° SSE
Cosmos 2084 Rocket 3.8 16:55:36 24° NNW 16:58:26 74° NE 17:03:14 10° SE
USA 306 4.5 17:00:53 23° S 17:01:53 25° SSE 17:05:29 10° ESE
SMAP 3.0 17:00:06 10° NNE 17:04:48 88° ESE 17:09:34 10° SSW
Cosmos 1000 Rocket 4.4 16:59:05 10° NNW 17:05:22 73° W 17:11:40 10° S
Cosmos 1725 Rocket 4.3 16:59:26 10° S 17:05:45 69° E 17:11:56 10° NNE
Cosmos 1300 2.7 17:06:55 56° WNW 17:06:55 56° WNW 17:10:23 10° N
deb Chang Zheng 4 3.4 17:02:56 10° NNE 17:07:15 84° WNW 17:10:35 17° SSW
AQUARIUS 4.2 17:02:57 10° NNE 17:07:28 82° ESE 17:12:04 10° S
ISS -3.7 17:08:03 64° S 17:08:03 64° S 17:11:20 10° SE
SL-19 R/B 4.4 17:05:29 10° SSE 17:11:43 89° WSW 17:17:28 10° NNW
CZ-4B DEB 4.1 17:07:40 10° NNE 17:13:11 79° WNW 17:18:48 10° SSW
Cosmos 2228 3.7 17:09:58 10° S 17:14:21 58° E 17:18:43 10° NNE
Lacrosse 4 Rocket 1.6 17:13:01 40° WSW 17:14:24 59° WNW 17:18:47 10° NNE
USA 276 3.8 17:15:26 17° NNW 17:17:23 32° NE 17:20:19 10° ESE
CZ-4C R/B 4.3 17:10:38 10° N 17:18:19 41° ENE 17:25:06 10° SE
Radarsat Rocket 4.0 17:15:10 10° N 17:21:11 74° WNW 17:27:57 10° SSW
CZ-2D R/B 3.9 17:20:21 10° NNE 17:24:06 56° ESE 17:27:54 10° S
MOS 1 Rocket 3.5 17:20:32 10° S 17:24:37 39° WSW 17:28:49 10° NW
Cosmos 1441 Rocket 4.4 17:20:52 10° NNE 17:24:43 46° E 17:28:35 10° SSE
Cosmos 1943 3.3 17:19:53 10° NNW 17:25:33 83° ENE 17:31:17 10° SSE
Cosmos 2233 Rocket 4.4 17:21:13 10° S 17:27:27 66° E 17:33:33 10° NNE
H-2A R/B 3.0 17:24:33 10° NE 17:29:25 49° ESE 17:34:27 10° S
Cosmos 1939 Rocket 2.8 17:25:52 10° N 17:29:48 64° W 17:33:45 10° SSW
CZ-4 R/B 3.6 17:30:07 10° ENE 17:33:17 24° ESE 17:36:28 10° SSE
ATLAS 5 CENTAUR R/B 3.2 17:30:04 20° W 17:34:32 39° SW 17:40:43 10° SSE
CENTAUR R/B 3.9 17:29:50 10° SSW 17:34:46 26° SSE 17:39:14 10° E
Cosmos 1864 Rocket 4.5 17:30:07 10° SSW 17:36:30 69° W 17:42:44 10° N
EXPRESS MD2 3.6 17:35:41 29° W 17:37:15 56° SSW 17:43:04 10° ESE
Cosmos 1937 Rocket 4.5 17:32:42 10° S 17:37:49 48° ESE 17:42:54 10° NE
Cosmos 1606 Rocket 3.7 17:34:10 10° S 17:38:45 85° E 17:43:16 10° N
MOS 1-B 4.4 17:33:34 10° N 17:39:21 62° WNW 17:45:11 10° SSW
Cosmos 1656 Rocket 3.6 17:35:14 10° SSW 17:40:48 79° WNW 17:46:23 10° NNE
CZ-4C R/B 3.0 17:38:10 10° SSE 17:41:48 90° WSW 17:45:25 10° NNW
Genesis I 3.0 17:40:49 17° SW 17:43:35 89° NW 17:47:18 10° NNE
Cosmos 44 4.4 17:41:38 10° N 17:45:42 41° ENE 17:49:44 10° SE
CZ-2C R/B 4.1 17:41:50 10° SSE 17:47:11 43° E 17:52:31 10° NNE
SME Rocket 3.9 17:43:23 10° SSE 17:47:49 75° ENE 17:54:08 10° NNW
YAOGAN 1 4.2 17:44:53 10° NE 17:48:51 35° ESE 17:52:52 10° S
Cosmos 468 Rocket 3.9 17:45:26 10° NNW 17:50:37 80° WSW 17:55:51 10° SSE
SKYMED 2 3.7 17:46:33 10° SSE 17:51:00 83° ENE 17:55:23 10° NNW
H-2A R/B 3.1 17:47:30 10° SSE 17:51:42 48° E 17:55:46 10° N
Cosmos 2263 4.4 17:46:52 10° SSW 17:52:36 58° WNW 17:58:17 10° N
Meteor 1-24 Rocket 4.0 17:48:39 10° NW 17:53:45 39° WSW 17:58:49 10° S
CZ-4B R/B 3.3 17:50:01 10° N 17:55:27 63° WNW 18:01:05 10° SSW
SJ 16-02 2.6 17:55:23 15° WSW 17:57:39 22° W 18:01:06 10° NNW
Cosmos 2369 Rocket 2.8 17:53:44 10° SW 17:58:55 37° WNW 18:04:05 10° N
USA 307 3.9 17:57:57 12° SW 18:01:42 39° SSE 18:05:46 10° E
Meteor 2-5 Rocket 4.5 17:56:53 10° NW 18:01:46 29° WSW 18:06:39 10° S
Cosmos 1346 Rocket 4.2 17:59:00 10° WNW 18:01:50 19° WSW 18:04:43 10° SSW
Cosmos 990 Rocket 4.1 18:00:13 10° SSW 18:05:27 57° WNW 18:10:36 10° N
Cosmos 1892 Rocket 3.5 18:01:21 10° NNW 18:05:44 76° W 18:10:12 10° S
Okean O Rocket 1.8 18:01:34 10° N 18:05:54 52° W 18:10:17 10° SSW
Cosmos 1184 Rocket 3.9 18:03:41 10° NW 18:06:25 24° WSW 18:09:11 10° SSW
Cosmos 1455 2.3 18:02:56 10° SSW 18:06:50 60° W 18:10:39 10° N
Cosmos 2123 Rocket 4.5 18:04:17 10° NW 18:10:01 38° WSW 18:15:52 10° S
BREEZE-M DEB (TANK) 4.1 18:09:43 12° W 18:12:55 52° S 18:23:09 10° ESE
Cosmos 1603 4.1 18:08:09 10° NW 18:13:36 43° WSW 18:19:09 10° SSE
USA 290 2.8 18:13:16 10° NW 18:16:22 37° WSW 18:19:32 10° S
Cosmos 1943 Rocket 3.9 18:14:12 10° WSW 18:16:27 13° W 18:18:43 10° WNW
USA 305 3.6 18:13:58 10° SW 18:18:15 50° SSE 18:22:30 10° ENE
USA 308 3.7 18:14:28 10° SW 18:18:42 47° SSE 18:22:54 10° ENE
OBJECT-B 3.8 18:17:13 10° E 18:18:50 13° ESE 18:20:29 10° SE
USA 234 4.2 18:15:58 10° SE 18:21:35 31° SSW 18:27:12 10° WSW
Okean 1-7 Rocket 3.8 18:17:23 10° N 18:22:00 87° E 18:26:39 10° S
H-2A R/B 3.0 18:18:31 10° N 18:22:46 46° W 18:27:10 10° SSW
CZ-4B R/B 2.2 18:20:00 10° SSE 18:23:02 51° E 18:26:02 10° N
Cosmos 841 Rocket 3.5 18:21:36 10° NNW 18:26:54 83° WSW 18:32:15 10° SSE
CZ-2C R/B 4.3 18:23:15 10° NW 18:27:26 23° W 18:31:49 10° SW
USA 281 3.3 18:23:27 10° SSE 18:30:02 67° WSW 18:36:34 10° NW
Feng Yun 1-1 Rocket 4.3 18:26:02 10° N 18:31:24 62° WNW 18:36:52 10° SSW
